Weather History for King Salmon, AK

Change the Weather History Date:

Monday, May 20, 2013

  Actual Average Record
Temperature  
Mean Temperature 38 °F 45 °F  
Max Temperature 49 °F 55 °F 74 °F (2002)
Min Temperature 27 °F 36 °F 26 °F (2008)
Degree Days  
Heating Degree Days 27 20  
Month to date heating degree days 538 446  
Since 1 July heating degree days 10834 10269  
Cooling Degree Days 0    
Month to date cooling degree days 0  
Year to date cooling degree days 0  
Moisture  
Dew Point 31 °F    
Average Humidity 0    
Maximum Humidity 0    
Minimum Humidity 0    
Precipitation  
Precipitation 0.00 in 0.04 in 0.63 in (1984)
Month to date precipitation 0.19 0.76  
Year to date precipitation 6.22 4.21  
Snow  
Snow 0.00 in 0.10 in T in (2009)
Month to date snowfall 0.8 0.7  
Since 1 July snowfall 75.3 46.5  
Snow Depth 0.00 in    
Sea Level Pressure  
Sea Level Pressure 30.52 in    
Wind  
Wind Speed 16 mph (SSE)    
Max Wind Speed 31 mph    
Max Gust Speed 37 mph    
Visibility 10 miles    
Events      
T = Trace of Precipitation, MM = Missing Value Source: NWS Daily Summary

Daily Weather History Graph

Daily Weather History Graph

Search for Another Location

Airport:

Trip Planner

Search our weather history database for the weather conditions in past years. The results will help you decide how hot, cold, wet, or windy it might be!

Date:

Astronomy

May. 20, 2013 Rise Set
Actual Time 5:46 AM AKDT 11:01 PM AKDT
Civil Twilight 4:44 AM AKDT 12:03 AM AKDT
Nautical Twilight 2:55 AM AKDT 1:50 AM AKDT
Astronomical Twilight Sun does not rise Sun does not rise
Moon 5:17 PM AKDT (5/20) 3:58 AM AKDT (5/20)
Length of Visible Light 19h 18m
Length of Day
17h 14m
Waxing Gibbous, 76% of the Moon is Illuminated
May 20
Waxing Gibbous
May 24
Full
May 31
Last Quarter
Jun 8
New
Jun 16
First Quarter

Hourly Weather History & Observations

Time (AKDT) Temp. Windchill Dew Point Humidity Pressure Visibility Wind Dir Wind Speed Gust Speed Precip Events Conditions
12:54 AM 34.0 °F 29.8 °F 27.0 °F 75% 30.59 in 10.0 mi SSE 4.6 mph - N/A   Mostly Cloudy
1:54 AM 32.0 °F 28.7 °F 28.0 °F 85% 30.58 in 10.0 mi ESE 3.5 mph - N/A   Scattered Clouds
2:54 AM 30.0 °F - 26.1 °F 85% 30.57 in 10.0 mi Calm Calm - N/A   Scattered Clouds
3:54 AM 28.0 °F - 24.1 °F 85% 30.57 in 10.0 mi Calm Calm - N/A   Scattered Clouds
4:54 AM 28.9 °F 25.2 °F 25.0 °F 85% 30.58 in 10.0 mi SSE 3.5 mph - N/A   Scattered Clouds
5:54 AM 30.9 °F 25.2 °F 25.0 °F 79% 30.57 in 10.0 mi SE 5.8 mph - N/A   Scattered Clouds
6:54 AM 36.0 °F 30.3 °F 28.9 °F 76% 30.56 in 10.0 mi SSE 6.9 mph - N/A   Mostly Cloudy
7:54 AM 37.0 °F 31.6 °F 30.0 °F 76% 30.55 in 10.0 mi SE 6.9 mph - N/A   Mostly Cloudy
8:54 AM 39.9 °F 33.4 °F 28.9 °F 65% 30.54 in 10.0 mi SE 10.4 mph - N/A   Mostly Cloudy
9:54 AM 41.0 °F 35.8 °F 30.0 °F 65% 30.55 in 10.0 mi SE 8.1 mph - N/A   Overcast
10:54 AM 42.1 °F 33.3 °F 30.0 °F 62% 30.54 in 10.0 mi South 19.6 mph 27.6 mph N/A   Overcast
11:54 AM 44.1 °F 34.8 °F 32.0 °F 63% 30.54 in 8.0 mi South 25.3 mph 33.4 mph N/A   Overcast
12:54 PM 45.0 °F 35.8 °F 34.0 °F 65% 30.53 in 10.0 mi South 26.5 mph 32.2 mph N/A   Overcast
1:54 PM 45.0 °F 36.4 °F 34.0 °F 65% 30.52 in 9.0 mi SSE 23.0 mph - N/A   Overcast
2:54 PM 46.0 °F 38.0 °F 34.0 °F 63% 30.51 in 10.0 mi South 21.9 mph 28.8 mph N/A   Overcast
3:54 PM 46.9 °F - 34.0 °F 61% 30.51 in 10.0 mi South 24.2 mph 29.9 mph N/A   Overcast
4:54 PM 46.9 °F - 36.0 °F 66% 30.49 in 10.0 mi SSE 19.6 mph 33.4 mph N/A   Overcast
5:54 PM 46.0 °F 37.4 °F 35.1 °F 66% 30.48 in 10.0 mi SSE 25.3 mph 33.4 mph N/A   Overcast
6:54 PM 46.0 °F 37.2 °F 36.0 °F 68% 30.46 in 10.0 mi SSE 26.5 mph 35.7 mph N/A   Overcast
7:54 PM 46.0 °F 37.4 °F 37.0 °F 71% 30.45 in 10.0 mi SSE 25.3 mph 34.5 mph N/A   Overcast
8:54 PM 45.0 °F 36.0 °F 36.0 °F 71% 30.44 in 10.0 mi SSE 25.3 mph 33.4 mph N/A   Overcast
9:54 PM 44.1 °F 35.4 °F 35.1 °F 71% 30.44 in 10.0 mi SSE 21.9 mph 28.8 mph N/A   Overcast
10:54 PM 44.1 °F 36.5 °F 35.1 °F 71% 30.44 in 10.0 mi SSE 17.3 mph 24.2 mph N/A   Overcast
11:54 PM 43.0 °F 36.4 °F 35.1 °F 74% 30.43 in 10.0 mi SSE 12.7 mph - N/A   Overcast